Calgary Springbank,

7:08 AM MDT on July 21, 2017 (GMT -0600)
Calgary Springbank

Weather History for CYBW - October, 2012

Change the Weather History Date:

Monday, October 1, 2012

  Actual Average Record
Temperature  
Mean Temperature 51 °F -  
Max Temperature 73 °F 48 °F 78 °F (2008)
Min Temperature 29 °F 26 °F 14 °F (2004)
Degree Days  
Heating Degree Days 14    
Growing Degree Days 1 (Base 50)    
Moisture  
Dew Point 36 °F    
Average Humidity 49    
Maximum Humidity 87    
Minimum Humidity 16    
Precipitation  
Precipitation 0.00 in - - ()
Sea Level Pressure  
Sea Level Pressure 29.92 in    
Wind  
Wind Speed 10 mph ()    
Max Wind Speed 32 mph    
Max Gust Speed 43 mph    
Visibility 13.1 miles    
Events      
Averages and records for this station are not official NWS values.
T = Trace of Precipitation, MM = Missing Value Source: Averaged Metar Reports

Daily Weather History Graph

Daily Weather History Graph

Search for Another Location

Airport or City:

Trip Planner

Search our weather history database for the weather conditions in past years. The results will help you decide how hot, cold, wet, or windy it might be!

Date:

Astronomy

Oct. 01, 2012 Rise Set
Actual Time 7:38 AM MDT 7:13 PM MDT
Civil Twilight 7:05 AM MDT 7:46 PM MDT
Nautical Twilight 6:27 AM MDT 8:25 PM MDT
Astronomical Twilight 5:48 AM MDT 9:04 PM MDT
Moon 7:34 PM MDT (10/1) 9:29 AM MDT (10/1)
Length of Visible Light 12h 40m
Length of Day
11h 34m
Full, 97% of the Moon is Illuminated
Oct 1
Full
Oct 8
Last Quarter
Oct 15
New
Oct 21
First Quarter
Oct 29
Full

Hourly Weather History & Observations

Time (MDT) Temp. Windchill Dew Point Humidity Pressure Visibility Wind Dir Wind Speed Gust Speed Precip Events Conditions
5:00 AM 33.8 °F 29.6 °F 30.2 °F 87% 30.16 in 15.0 mi WSW 4.6 mph - N/A   Partly Cloudy
6:00 AM 36 °F - 31 °F 73% 30.14 in 15 mi Calm Calm - -   Scattered Clouds
6:00 AM 37.4 °F - 30.2 °F 75% 30.13 in 15.0 mi West 2.3 mph - N/A   Partly Cloudy
7:00 AM 37.4 °F 32.1 °F 32.0 °F 81% 30.13 in 15.0 mi SSW 6.9 mph - N/A   Scattered Clouds
8:00 AM 41.0 °F 35.8 °F 33.8 °F 76% 30.12 in 30.0 mi WSW 8.1 mph - N/A   Mostly Cloudy
9:00 AM 50.0 °F - 39.2 °F 66% 30.10 in 30.0 mi South 5.8 mph - N/A   Mostly Cloudy
10:00 AM 66.2 °F - 39.2 °F 37% 30.04 in 30.0 mi WSW 15.0 mph 20.7 mph N/A   Mostly Cloudy
11:00 AM 68.0 °F - 39.2 °F 35% 30.01 in 30.0 mi West 21.9 mph 29.9 mph N/A   Mostly Cloudy
12:00 PM 64 °F - 38 °F 26% 29.96 in 28 mi WSW 18.4 mph - -   Mostly Cloudy
12:00 PM 64.4 °F - 37.4 °F 37% 29.96 in 30.0 mi WSW 16.1 mph 27.6 mph N/A   Mostly Cloudy
1:00 PM 66.2 °F - 37.4 °F 35% 29.91 in 30.0 mi SW 10.4 mph - N/A   Mostly Cloudy
2:00 PM 71.6 °F - 39.2 °F 31% 29.85 in 30.0 mi South 11.5 mph 18.4 mph N/A   Mostly Cloudy
3:00 PM 71.6 °F - 37.4 °F 29% 29.82 in 30.0 mi SW 18.4 mph 25.3 mph N/A   Mostly Cloudy
4:00 PM 71.6 °F - 35.6 °F 27% 29.76 in 30.0 mi WSW 13.8 mph 25.3 mph N/A   Mostly Cloudy
5:00 PM 73.4 °F - 33.8 °F 23% 29.74 in 30.0 mi West 20.7 mph 26.5 mph N/A   Mostly Cloudy
6:00 PM 70 °F - 34 °F 16% 29.70 in 28 mi West 28.8 mph - -   Scattered Clouds
6:00 PM 69.8 °F - 33.8 °F 27% 29.70 in 30.0 mi West 32.2 mph 42.6 mph N/A   Mostly Cloudy
7:00 PM 66.2 °F - 35.6 °F 32% 29.71 in 30.0 mi WNW 25.3 mph 32.2 mph N/A   Mostly Cloudy
8:00 PM 51.8 °F - 39.2 °F 62% 29.79 in 12.0 mi North 16.1 mph 28.8 mph N/A   Scattered Clouds
9:00 PM 48.2 °F - 39.2 °F 71% 29.78 in 10.0 mi NNE 15.0 mph 25.3 mph N/A   Scattered Clouds
10:00 PM 48.2 °F - 41.0 °F 76% 29.78 in 10.0 mi NE 4.6 mph - N/A   Mostly Cloudy